"2009-02-06 00:00:00",605152,3.779,209.1,7.104,0.298,13,105.6916,13.84,14.76,8.96,0,110.4,13.33,14.64,171.1
"2009-02-06 00:00:30",605153,3.48,192.8,11.07,0.959,14.48,105.6916,13.84,14.81,8.96,0,110.4,13.29,14.64,154.8
"2009-02-06 00:01:00",605154,2.718,198.7,10.88,1.046,15.08,105.6919,13.84,14.9,9.06,0,110.4,13.29,14.64,160.7
"2009-02-06 00:01:30",605155,2.313,178.7,7.627,0.883,14.08,105.6968,13.86,14.74,8.92,0,110.4,13.29,14.66,140.7
"2009-02-06 00:02:00",605156,1.819,175.3,6.608,0.21,13.48,105.701,13.87,14.77,8.9,0,110.4,13.33,14.67,137.3
"2009-02-06 00:02:30",605157,1.6,194.6,6.94,0.36,13.45,105.7062,13.88,14.76,8.91,0,110.4,13.33,14.68,156.6
"2009-02-06 00:03:00",605158,1.234,178.6,7.345,0.27,13.59,105.7123,13.9,14.76,8.92,0,110.4,13.33,14.70,140.6
"2009-02-06 00:03:30",605159,3.111,177.5,22.78,0.995,15.62,105.7081,13.89,14.97,9.17,0,110.4,13.29,14.69,139.5
"2009-02-06 00:04:00",605160,3.962,204,7.063,1.236,17,105.7097,13.89,14.99,9.21,0,110.4,13.29,14.69,166.0
"2009-02-06 00:04:30",605161,4.945,188.3,8.38,1.437,16.57,105.7109,13.89,14.99,9.28,0,110.3,13.29,14.69,150.3
"2009-02-06 00:05:00",605162,3.211,191.7,5.731,0.849,12.51,105.7118,13.89,14.74,9.08,0,110.3,13.29,14.70,153.7
"2009-02-06 00:05:30",605163,2.402,179.9,5.14,0.265,11.76,105.7047,13.88,14.73,9.07,0,110.3,13.33,14.68,141.9
"2009-02-06 00:06:00",605164,2.283,181.8,4.952,0.231,11.71,105.6827,13.82,14.72,9.08,0,110.3,13.33,14.62,143.8
"2009-02-06 00:06:30",605165,2.848,172,4.642,0.215,11.93,105.6831,13.82,14.71,9.11,0,110.3,13.33,14.62,134.0
"2009-02-06 00:07:00",605166,3.165,178.1,9.04,0.191,12.32,105.6833,13.82,14.69,9.11,0,110.3,13.33,14.62,140.1
"2009-02-06 00:07:30",605167,3.296,178.4,12.12,0.265,12.67,105.6833,13.82,14.68,9.12,0,110.3,13.33,14.62,140.4
"2009-02-06 00:08:00",605168,4.928,182.4,12.75,1.648,14.95,105.6819,13.82,14.82,9.29,0,110.3,13.29,14.62,144.4
"2009-02-06 00:08:30",605169,3.013,186.5,10.88,0.907,14.14,105.6743,13.8,14.79,9.32,0,110.3,13.29,14.60,148.5
"2009-02-06 00:09:00",605170,3.689,186.8,5.739,0.461,13.08,105.6622,13.77,14.63,9.18,0,110.3,13.33,14.57,148.8
"2009-02-06 00:09:30",605171,2.891,198.9,5.094,0.398,13.08,105.6498,13.74,14.64,9.2,0,110.3,13.33,14.54,160.9
"2009-02-06 00:10:00",605172,3.629,219.5,8.76,1.373,14.98,105.6495,13.74,14.69,9.3,0,110.3,13.29,14.54,181.5
"2009-02-06 00:10:30",605173,3.077,224.9,6.284,1.006,14.52,105.6495,13.74,14.76,9.43,0,110.3,13.29,14.54,186.9
"2009-02-06 00:11:00",605174,3.188,224.8,3.634,1.213,14.05,105.6495,13.74,14.6,9.27,0,110.3,13.3,14.54,186.8
"2009-02-06 00:11:30",605175,2.063,223.7,4.523,0.199,13.09,105.6495,13.74,14.6,9.28,0,110.3,13.34,14.54,185.7
"2009-02-06 00:12:00",605176,3.135,224.4,9.5,1.381,15.33,105.649,13.73,14.83,9.53,0,110.3,13.3,14.53,186.4
"2009-02-06 00:12:30",605177,2.33,232.6,7.298,1.194,14.34,105.6459,13.73,14.71,9.41,0,110.3,13.3,14.53,194.6
"2009-02-06 00:13:00",605178,2.294,221.2,4.162,0.162,12.06,105.6413,13.71,14.59,9.23,0,110.3,13.34,14.51,183.2
"2009-02-06 00:13:30",605179,1.808,209.2,4.365,0.152,11.86,105.6351,13.7,14.57,9.24,0,110.3,13.34,14.50,171.2
"2009-02-06 00:14:00",605180,1.947,203.1,4.102,0.131,11.92,105.6298,13.68,14.59,9.3,0,110.3,13.34,14.48,165.1
"2009-02-06 00:14:30",605181,1.469,188.1,5.299,0.159,12.29,105.6196,13.66,14.56,9.31,0,110.3,13.34,14.46,150.1
"2009-02-06 00:15:00",605182,1.825,208.6,5.256,0.172,12.57,105.618,13.65,14.67,9.42,0,110.3,13.34,14.45,170.6
"2009-02-06 00:15:30",605183,3.129,228.7,3.898,1.398,14.45,105.6157,13.65,14.6,9.39,0,110.3,13.31,14.45,190.7
"2009-02-06 00:16:00",605184,1.835,229.2,3.619,0.097,12.68,105.6157,13.65,14.56,9.33,0,110.3,13.34,14.45,191.2
"2009-02-06 00:16:30",605185,1.781,235.6,4.056,0.144,12.64,105.6157,13.65,14.55,9.35,0,110.3,13.34,14.45,197.6
"2009-02-06 00:17:00",605186,1.632,242.4,2.772,0.084,13.08,105.6157,13.65,14.55,9.33,0,110.3,13.34,14.45,204.4
"2009-02-06 00:17:30",605187,1.446,237.5,4.135,0.128,13.02,105.616,13.65,14.54,9.32,0,110.4,13.34,14.45,199.5
"2009-02-06 00:18:00",605188,2.338,230.6,7.341,1.272,15.08,105.6169,13.65,14.66,9.49,0,110.3,13.31,14.45,192.6
"2009-02-06 00:18:30",605189,1.273,247.7,16.66,0.588,13.63,105.6169,13.65,14.64,9.45,0,110.3,13.31,14.45,209.7
"2009-02-06 00:19:00",605190,1.619,272.6,3.412,0.169,13.04,105.6199,13.66,14.54,9.22,0,110.3,13.35,14.46,234.6
"2009-02-06 00:19:30",605191,1.572,279.9,5.454,0.145,13,105.6252,13.67,14.53,9.17,0,110.3,13.35,14.47,241.9
"2009-02-06 00:20:00",605192,1.132,262.4,6.502,0.289,13.02,105.6249,13.67,14.54,9.14,0,110.3,13.31,14.47,224.4
"2009-02-06 00:20:30",605193,2.558,301.2,11.97,1.413,15.91,105.6264,13.68,14.74,9.32,0,110.3,13.31,14.48,263.2
"2009-02-06 00:21:00",605194,1.967,254.2,17.26,1.382,14.29,105.6279,13.68,14.69,9.26,0,110.3,13.31,14.48,216.2
"2009-02-06 00:21:30",605195,0.964,248.6,13.95,0.149,12.13,105.6282,13.68,14.55,9.11,0,110.3,13.35,14.48,210.6
"2009-02-06 00:22:00",605196,0.872,247.9,4.403,0.182,11.68,105.6318,13.69,14.56,9.12,0,110.3,13.35,14.49,209.9
"2009-02-06 00:22:30",605197,1.119,259.1,6.199,0.144,11.76,105.6371,13.7,14.57,9.16,0,110.3,13.35,14.50,221.1
"2009-02-06 00:23:00",605198,1.024,282.3,10.76,0.096,12,105.6425,13.72,14.58,9.14,0,110.3,13.35,14.52,244.3
"2009-02-06 00:23:30",605199,2.022,297.6,6.155,1.384,14.14,105.6449,13.72,14.62,9.19,0,110.3,13.31,14.52,259.6
"2009-02-06 00:24:00",605200,2.074,304.4,10.68,1.205,13.87,105.6496,13.74,14.74,9.31,0,110.3,13.31,14.54,266.4
"2009-02-06 00:24:30",605201,1.899,312.2,6.332,0.857,13.09,105.6514,13.74,14.58,9.17,0,110.3,13.31,14.54,274.2
"2009-02-06 00:25:00",605202,1.201,313.4,9.12,0.121,12.54,105.6514,13.74,14.59,9.17,0,110.3,13.35,14.54,275.4
"2009-02-06 00:25:30",605203,1.544,301.1,8.95,0.188,12.72,105.6517,13.74,14.6,9.16,0,110.3,13.35,14.54,263.1
"2009-02-06 00:26:00",605204,1.774,300.2,3.516,0.066,12.97,105.6514,13.74,14.6,9.18,0,110.3,13.35,14.54,262.2
"2009-02-06 00:26:30",605205,1.418,291.4,3.134,0.232,13.17,105.6514,13.74,14.64,9.22,0,110.3,13.35,14.54,253.4
"2009-02-06 00:27:00",605206,1.83,301.7,8.59,1.35,15.25,105.6514,13.74,14.7,9.27,0,110.3,13.32,14.54,263.7
"2009-02-06 00:27:30",605207,1.226,304,5.152,0.332,13.51,105.6514,13.74,14.7,9.31,0,110.3,13.36,14.54,266.0
"2009-02-06 00:28:00",605208,1.338,305.8,4.423,0.068,12.9,105.6514,13.74,14.59,9.19,0,110.3,13.36,14.54,267.8
"2009-02-06 00:28:30",605209,1.503,302.8,2.946,0.11,13,105.6514,13.74,14.59,9.19,0,110.3,13.36,14.54,264.8
"2009-02-06 00:29:00",605210,1.792,308.6,3.907,0.33,13.18,105.6514,13.74,14.59,9.2,0,110.3,13.36,14.54,270.6
"2009-02-06 00:29:30",605211,3.422,318.2,12.1,1.419,16.56,105.6514,13.74,14.85,9.42,0,110.3,13.32,14.54,280.2
"2009-02-06 00:30:00",605212,3.917,324.9,11.77,1.207,16.55,105.6548,13.75,14.8,9.38,0,110.3,13.32,14.55,286.9
"2009-02-06 00:30:30",605213,2.342,305.3,4.57,0.79,12.71,105.6794,13.81,14.62,9.18,0,110.3,13.32,14.61,267.3
"2009-02-06 00:31:00",605214,1.976,309.2,3.852,0.159,12.1,105.6853,13.83,14.64,9.18,0,110.3,13.36,14.63,271.2
"2009-02-06 00:31:30",605215,2.204,293.6,4.523,0.25,12.17,105.6853,13.83,14.66,9.17,0,110.3,13.36,14.63,255.6
"2009-02-06 00:32:00",605216,2.431,292,2.733,0.153,12.72,105.6853,13.83,14.78,9.29,0,110.3,13.36,14.63,254.0
"2009-02-06 00:32:30",605217,3.697,307.8,8.31,1.126,14.36,105.6853,13.83,14.71,9.22,0,110.3,13.32,14.63,269.8
"2009-02-06 00:33:00",605218,2.469,301.6,4.002,0.209,12.68,105.6853,13.83,14.67,9.17,0,110.3,13.36,14.63,263.6
"2009-02-06 00:33:30",605219,2.433,307.6,3.758,0.275,12.75,105.6853,13.83,14.67,9.16,0,110.3,13.36,14.63,269.6
"2009-02-06 00:34:00",605220,2.926,305.3,4.783,0.17,13.06,105.6853,13.83,14.68,9.15,0,110.3,13.36,14.63,267.3
"2009-02-06 00:34:30",605221,3.123,306,6.646,0.769,13.93,105.6853,13.83,14.83,9.28,0,110.2,13.33,14.63,268.0
"2009-02-06 00:35:00",605222,4.529,313,6.45,1.24,14.91,105.6853,13.83,14.76,9.19,0,110.3,13.33,14.63,275.0
"2009-02-06 00:35:30",605223,3.711,310.6,5.112,0.697,14.39,105.687,13.83,14.8,9.23,0,110.3,13.33,14.63,272.6
"2009-02-06 00:36:00",605224,3.554,307.6,3.931,0.174,13.15,105.6858,13.83,14.72,9.12,0,110.3,13.36,14.63,269.6
"2009-02-06 00:36:30",605225,3.499,306.7,2.296,0.201,13.16,105.6862,13.83,14.72,9.13,0,110.3,13.36,14.63,268.7
"2009-02-06 00:37:00",605226,4.239,305.5,7.76,1.289,14.89,105.6848,13.83,14.73,9.18,0,110.3,13.33,14.63,267.5
"2009-02-06 00:37:30",605227,4.656,316.6,7.707,1.161,16.36,105.664,13.77,14.93,9.43,0,110.3,13.33,14.57,278.6
"2009-02-06 00:38:00",605228,2.974,310.1,3.673,0.177,12.77,105.6538,13.75,14.73,9.26,0,110.3,13.37,14.55,272.1
"2009-02-06 00:38:30",605229,2.836,306,5.388,0.253,12.26,105.6538,13.75,14.69,9.24,0,110.3,13.36,14.55,268.0
"2009-02-06 00:39:00",605230,4.482,317.4,7.993,1.492,14.14,105.6577,13.76,14.77,9.3,0,110.3,13.33,14.56,279.4
"2009-02-06 00:39:30",605231,3.128,310.9,6.264,0.757,13.12,105.6604,13.76,14.79,9.32,0,110.3,13.33,14.56,272.9
"2009-02-06 00:40:00",605232,3.435,316.1,2.508,0.133,12.5,105.6643,13.77,14.65,9.17,0,110.3,13.36,14.57,278.1
"2009-02-06 00:40:30",605233,3.084,314.1,2.833,0.125,12.66,105.6654,13.78,14.68,9.14,0,110.3,13.36,14.58,276.1
"2009-02-06 00:41:00",605234,3.767,313.9,2.365,0.329,13.06,105.6731,13.8,14.69,9.14,0,110.2,13.36,14.60,275.9
"2009-02-06 00:41:30",605235,4.713,314.4,6.101,1.41,14.42,105.6836,13.82,14.71,9.18,0,110.3,13.33,14.62,276.4
"2009-02-06 00:42:00",605236,5.139,319.8,6.834,1.237,15.29,105.6801,13.81,14.79,9.24,0,110.2,13.33,14.61,281.8
"2009-02-06 00:42:30",605237,4.459,314.2,1.033,0.107,13.28,105.6886,13.84,14.69,9.12,0,110.2,13.36,14.64,276.2
"2009-02-06 00:43:00",605238,4.434,314.2,1.171,0.074,13.35,105.7005,13.87,14.69,9.11,0,110.2,13.36,14.67,276.2
"2009-02-06 00:43:30",605239,4.472,313.8,0.884,0.154,13.48,105.7073,13.88,14.7,9.11,0,110.2,13.36,14.68,275.8
"2009-02-06 00:44:00",605240,5.438,321,7.265,1.242,15.37,105.7119,13.9,14.75,9.13,0,110.2,13.33,14.70,283.0
"2009-02-06 00:44:30",605241,5.68,324.3,7.258,1.407,16.4,105.7175,13.91,14.91,9.29,0,110.2,13.34,14.71,286.3
"2009-02-06 00:45:00",605242,6.199,325.3,6.643,1.315,16.4,105.7172,13.91,14.92,9.32,0,110.2,13.34,14.71,287.3
"2009-02-06 00:45:30",605243,5.064,317.9,5.067,1.138,14.1,105.719,13.91,14.87,9.24,0,110.2,13.33,14.71,279.9
"2009-02-06 00:46:00",605244,5.059,315.9,3.49,0.675,12.96,105.7205,13.92,14.73,9.12,0,110.2,13.33,14.72,277.9
"2009-02-06 00:46:30",605245,4.963,315.5,0.866,0.057,12.55,105.7205,13.92,14.75,9.13,0,110.2,13.37,14.72,277.5
"2009-02-06 00:47:00",605246,5.005,316.2,0.805,0.065,12.88,105.7211,13.92,14.75,9.12,0,110.2,13.37,14.72,278.2
"2009-02-06 00:47:30",605247,5.152,316.5,0.531,0.354,13.31,105.7211,13.92,14.74,9.12,0,110.2,13.34,14.72,278.5
"2009-02-06 00:48:00",605248,6.092,321,5.938,1.318,15.46,105.7211,13.92,14.89,9.25,0,110.2,13.34,14.72,283.0
"2009-02-06 00:48:30",605249,5.065,315.8,0.466,0.066,13.49,105.7211,13.92,14.77,9.13,0,110.2,13.37,14.72,277.8
"2009-02-06 00:49:00",605250,5.254,315.5,0.563,0.067,13.37,105.7211,13.92,14.76,9.1,0,110.2,13.37,14.72,277.5
"2009-02-06 00:49:30",605251,5.396,314.4,0.291,0.051,13.48,105.7211,13.92,14.75,9.09,0,110.2,13.38,14.72,276.4
"2009-02-06 00:50:00",605252,5.309,313.5,0.985,0.094,13.55,105.7211,13.92,14.76,9.09,0,110.2,13.37,14.72,275.5
"2009-02-06 00:50:30",605253,5.646,316.7,6.661,1.21,15.11,105.7211,13.92,14.92,9.25,0,110.2,13.34,14.72,278.7
"2009-02-06 00:51:00",605254,7.141,324.8,4.999,0.606,18.62,105.7199,13.92,15.06,9.4,0,110.2,13.34,14.72,286.8
"2009-02-06 00:51:30",605255,5.426,316.7,7.845,1.221,15.15,105.6982,13.86,14.93,9.27,0,110.2,13.34,14.66,278.7
"2009-02-06 00:52:00",605256,4.925,313.5,1.423,0.136,12.59,105.6872,13.83,14.75,9.1,0,110.2,13.37,14.63,275.5
"2009-02-06 00:52:30",605257,4.891,313.7,1.776,0.321,12.31,105.6872,13.83,14.72,9.09,0,110.2,13.37,14.63,275.7
"2009-02-06 00:53:00",605258,5.123,312.8,1.209,0.129,12.63,105.6872,13.83,14.7,9.1,0,110.2,13.37,14.63,274.8
"2009-02-06 00:53:30",605259,5.494,315.7,5.854,1.21,14.02,105.6872,13.83,14.69,9.1,0,110.2,13.34,14.63,277.7
"2009-02-06 00:54:00",605260,5.695,316,7.347,1.238,14.98,105.6844,13.82,14.82,9.24,0,110.2,13.34,14.62,278.0
"2009-02-06 00:54:30",605261,4.966,311.7,1.387,0.166,12.96,105.6756,13.8,14.67,9.11,0,110.2,13.38,14.60,273.7
"2009-02-06 00:55:00",605262,5.247,312.6,1.025,0.132,12.94,105.6649,13.77,14.67,9.11,0,110.2,13.37,14.57,274.6
"2009-02-06 00:55:30",605263,5.166,313.6,1.51,0.098,13.16,105.6539,13.75,14.66,9.09,0,110.2,13.37,14.55,275.6
"2009-02-06 00:56:00",605264,5.726,314.9,3.866,0.891,14.18,105.6533,13.75,14.79,9.26,0,110.2,13.34,14.54,276.9
"2009-02-06 00:56:30",605265,6.43,316.6,5.402,1.218,14.61,105.6533,13.75,14.68,9.15,0,110.2,13.33,14.54,278.6
"2009-02-06 00:57:00",605266,6.816,320.3,6.799,1.297,16.09,105.6533,13.75,14.93,9.4,0,110.2,13.33,14.54,282.3
"2009-02-06 00:57:30",605267,7.878,323.4,5.825,1.128,17.03,105.6533,13.75,14.83,9.28,0,110.2,13.33,14.54,285.4
"2009-02-06 00:58:00",605268,6.306,313.6,3.589,0.766,12.94,105.6533,13.75,14.62,9.11,0,110.2,13.33,14.54,275.6
"2009-02-06 00:58:30",605269,6.104,311.5,0.579,0.069,12.52,105.6533,13.75,14.61,9.13,0,110.2,13.36,14.54,273.5
"2009-02-06 00:59:00",605270,6.216,316.4,5.509,0.886,13.76,105.6522,13.74,14.76,9.32,0,110.2,13.33,14.54,278.4
"2009-02-06 00:59:30",605271,6.075,320.3,5.108,1.281,13.99,105.6497,13.74,14.67,9.27,0,110.2,13.33,14.54,282.3
"2009-02-06 01:00:00",605272,4.944,321.8,3.192,0.549,13.18,105.65,13.74,14.64,9.23,0,110.2,13.37,14.54,283.8
"2009-02-06 01:00:30",605273,4.559,321.6,1.462,0.094,12.71,105.6522,13.74,14.6,9.22,0,110.2,13.37,14.54,283.6
"2009-02-06 01:01:00",605274,4.891,317.1,1.298,0.181,12.95,105.6533,13.75,14.63,9.25,0,110.2,13.38,14.54,279.1
"2009-02-06 01:01:30",605275,6.474,319.6,7.465,1.319,15.25,105.6533,13.75,14.71,9.32,0,110.2,13.34,14.54,281.6
"2009-02-06 01:02:00",605276,5.92,313.1,0.685,0.172,13.35,105.6531,13.74,14.63,9.21,0,110.2,13.38,14.54,275.1
"2009-02-06 01:02:30",605277,6.902,313.4,4.45,1.012,14,105.6519,13.74,14.59,9.2,0,110.2,13.34,14.54,275.4
"2009-02-06 01:03:00",605278,7.759,318.8,6.656,1.398,16.21,105.6361,13.7,14.84,9.45,0,110.2,13.34,14.50,280.8
"2009-02-06 01:03:30",605279,7.59,317.8,6.467,1.255,15.51,105.6201,13.66,14.7,9.28,0,110.2,13.34,14.46,279.8
"2009-02-06 01:04:00",605280,5.965,315.2,0.945,0.093,12.53,105.6195,13.66,14.58,9.18,0,110.2,13.38,14.46,277.2
"2009-02-06 01:04:30",605281,6.809,321.5,5.478,1.345,14.57,105.6195,13.66,14.7,9.33,0,110.2,13.34,14.46,283.5
"2009-02-06 01:05:00",605282,6.41,317.5,5.066,0.67,13.5,105.6195,13.66,14.69,9.28,0,110.2,13.34,14.46,279.5
"2009-02-06 01:05:30",605283,6.047,315.7,1.026,0.228,12.81,105.6195,13.66,14.54,9.11,0,110.2,13.38,14.46,277.7
"2009-02-06 01:06:00",605284,7.248,316.5,7.197,1.171,14.27,105.6195,13.66,14.65,9.16,0,110.2,13.34,14.46,278.5
"2009-02-06 01:06:30",605285,6.896,316.5,5.157,0.936,13.78,105.6195,13.66,14.65,9.19,0,110.2,13.34,14.46,278.5
"2009-02-06 01:07:00",605286,7.313,322,5.536,1.468,14.5,105.6195,13.66,14.55,9.05,0,110.2,13.34,14.46,284.0
"2009-02-06 01:07:30",605287,5.843,320.4,1.251,0.156,13.08,105.6175,13.65,14.52,9.05,0,110.2,13.38,14.45,282.4
"2009-02-06 01:08:00",605288,7.135,330.3,6.526,1.292,15.94,105.6113,13.64,14.6,9.13,0,110.2,13.34,14.44,292.3
"2009-02-06 01:08:30",605289,7.288,327,7.444,1.317,16.52,105.6017,13.61,14.78,9.31,0,110.2,13.34,14.41,289.0
"2009-02-06 01:09:00",605290,6.31,323.2,6.157,1.238,13.86,105.5902,13.58,14.5,9.01,0,110.2,13.34,14.38,285.2
"2009-02-06 01:09:30",605291,5.824,320.4,4.85,1.008,13.05,105.5859,13.57,14.5,8.98,0,110.2,13.34,14.37,282.4
"2009-02-06 01:10:00",605292,6.534,319.9,6.86,1.313,14.42,105.5856,13.57,14.63,9.08,0,110.2,13.34,14.37,281.9
"2009-02-06 01:10:30",605293,5.939,316.6,1.34,0.257,12.33,105.5856,13.57,14.47,8.92,0,110.2,13.38,14.37,278.6
"2009-02-06 01:11:00",605294,6.17,317.7,4.438,0.451,12.86,105.5856,13.57,14.56,8.98,0,110.2,13.38,14.37,279.7
"2009-02-06 01:11:30",605295,6.334,323.3,6.444,1.423,14.1,105.5856,13.57,14.5,8.91,0,110.2,13.34,14.37,285.3
"2009-02-06 01:12:00",605296,5.858,323.3,7.972,1.219,14.68,105.5854,13.57,14.57,8.96,0,110.2,13.34,14.37,285.3
"2009-02-06 01:12:30",605297,5.086,315.4,0.996,0.126,12.72,105.5806,13.56,14.44,8.85,0,110.2,13.37,14.36,277.4
"2009-02-06 01:13:00",605298,5.08,319.5,5.926,0.963,14.19,105.5698,13.53,14.53,8.93,0,110.2,13.34,14.33,281.5
"2009-02-06 01:13:30",605299,5.833,318.7,6.124,1.166,14.69,105.5574,13.5,14.49,8.88,0,110.2,13.34,14.30,280.7
"2009-02-06 01:14:00",605300,6.633,322.2,6.748,1.335,16.36,105.5521,13.49,14.67,9.05,0,110.2,13.34,14.28,284.2
"2009-02-06 01:14:30",605301,6.619,317,8.89,1.394,14.48,105.5518,13.48,14.5,8.93,0,110.2,13.34,14.28,279.0
"2009-02-06 01:15:00",605302,6.485,319.5,5.936,1.213,14.67,105.5518,13.48,14.46,8.92,0,110.2,13.34,14.28,281.5
"2009-02-06 01:15:30",605303,5.685,318.3,6.131,1.004,13.59,105.5518,13.48,14.53,9.03,0,110.2,13.34,14.28,280.3
"2009-02-06 01:16:00",605304,5.408,312.3,1.202,0.104,12.2,105.5518,13.48,14.36,8.88,0,110.2,13.37,14.28,274.3
"2009-02-06 01:16:30",605305,6.681,319.2,7.66,1.328,14.32,105.5518,13.48,14.53,9.04,0,110.2,13.34,14.28,281.2
"2009-02-06 01:17:00",605306,5.475,309.6,1.423,0.21,12.5,105.5498,13.48,14.41,8.98,0,110.2,13.38,14.28,271.6
"2009-02-06 01:17:30",605307,4.897,308.4,1.129,0.144,12.59,105.5414,13.46,14.34,8.93,0,110.2,13.38,14.26,270.4
"2009-02-06 01:18:00",605308,5.107,310.8,3.614,0.28,12.76,105.5256,13.42,14.34,8.93,0,110.2,13.38,14.22,272.8
"2009-02-06 01:18:30",605309,6.511,320.4,6.345,1.259,15.34,105.5179,13.4,14.41,9,0,110.2,13.34,14.20,282.4
"2009-02-06 01:19:00",605310,6.151,315.4,5.924,1.315,14.77,105.5179,13.4,14.49,9.1,0,110.2,13.34,14.20,277.4
"2009-02-06 01:19:30",605311,6.705,316.6,6.74,1.392,15.93,105.5179,13.4,14.5,9.19,0,110.2,13.34,14.20,278.6
"2009-02-06 01:20:00",605312,6.14,317.1,5.833,1.148,14.43,105.5179,13.4,14.47,9.14,0,110.3,13.34,14.20,279.1
"2009-02-06 01:20:30",605313,6.662,313.7,6.839,1.325,14.33,105.5179,13.4,14.42,9.05,0,110.2,13.34,14.20,275.7
"2009-02-06 01:21:00",605314,5.929,311.3,1.899,0.218,12.06,105.5171,13.4,14.27,8.82,0,110.2,13.38,14.19,273.3
"2009-02-06 01:21:30",605315,7.147,315.8,5.589,1.605,14.31,105.5171,13.4,14.41,8.8,0,110.2,13.34,14.19,277.8
"2009-02-06 01:22:00",605316,5.735,319.6,4.236,0.231,12.25,105.5179,13.4,14.28,8.56,0,110.2,13.38,14.20,281.6
"2009-02-06 01:22:30",605317,5.558,323.9,2.629,0.185,12.38,105.5179,13.4,14.28,8.66,0,110.2,13.38,14.20,285.9
"2009-02-06 01:23:00",605318,5.563,321.6,5.082,0.294,12.68,105.5179,13.4,14.28,8.74,0,110.2,13.38,14.20,283.6
"2009-02-06 01:23:30",605319,6.531,315.3,3.378,0.428,13.02,105.5179,13.4,14.26,8.7,0,110.2,13.38,14.20,277.3
"2009-02-06 01:24:00",605320,7.314,328,12.21,1.256,15.48,105.5179,13.4,14.47,8.97,0,110.2,13.35,14.20,290.0
"2009-02-06 01:24:30",605321,7.984,325.3,6.942,1.444,15.25,105.5179,13.4,14.46,9.05,0,110.2,13.35,14.20,287.3
"2009-02-06 01:25:00",605322,9,335,5.957,1.12,16.38,105.5137,13.39,14.51,9.15,0,110.2,13.34,14.19,297.0
"2009-02-06 01:25:30",605323,9.21,326.3,6.932,1.142,13.77,105.5027,13.36,14.29,8.98,0,110.2,13.34,14.16,288.3
"2009-02-06 01:26:00",605324,8.67,331.7,9.23,1.335,14.02,105.4858,13.32,14.39,9.1,0,110.2,13.34,14.11,293.7
"2009-02-06 01:26:30",605325,7.145,316.7,3.367,0.279,11.92,105.4841,13.31,14.3,9.09,0,110.2,13.38,14.11,278.7
"2009-02-06 01:27:00",605326,7.982,327.4,4.083,1.085,12.14,105.4841,13.31,14.2,9.07,0,110.2,13.38,14.11,289.4
"2009-02-06 01:27:30",605327,7.67,317.2,3.483,0.66,12.43,105.4841,13.31,14.2,9.1,0,110.2,13.38,14.11,279.2
"2009-02-06 01:28:00",605328,7.393,320.5,5.163,0.855,12.76,105.4793,13.3,14.25,9.19,0,110.2,13.38,14.10,282.5
"2009-02-06 01:28:30",605329,10.12,327.2,7.009,1.84,16.14,105.4641,13.26,14.3,9.3,0,110.2,13.34,14.06,289.2
"2009-02-06 01:29:00",605330,9.92,333.8,8.03,1.441,16.11,105.4511,13.23,14.43,9.59,0,110.2,13.34,14.03,295.8
"2009-02-06 01:29:30",605331,8.39,340,6.321,1.537,15.87,105.4502,13.22,14.42,9.57,0,110.2,13.34,14.02,302.0
"2009-02-06 01:30:00",605332,8.55,332.5,6.962,1.456,14.29,105.4452,13.21,14.33,9.53,0,110.2,13.34,14.01,294.5
"2009-02-06 01:30:30",605333,7.436,325.2,3.302,0.404,11.71,105.4181,13.14,14.17,9.45,0,110.2,13.37,13.94,287.2
"2009-02-06 01:31:00",605334,6.055,328.3,2.955,0.505,11.65,105.4164,13.14,14.08,9.39,0,110.2,13.37,13.94,290.3
"2009-02-06 01:31:30",605335,7.975,329.6,2.902,0.712,11.8,105.4164,13.14,14.05,9.49,0,110.2,13.37,13.94,291.6
"2009-02-06 01:32:00",605336,8.56,314.9,6.463,0.456,12.19,105.4096,13.12,14.03,9.6,0,110.2,13.37,13.92,276.9
"2009-02-06 01:32:30",605337,8.22,313.1,5.532,0.565,12.71,105.3831,13.05,14.1,9.7,0,110.2,13.37,13.85,275.1
"2009-02-06 01:33:00",605338,9.97,325.9,6.776,1.834,16.63,105.3825,13.05,14.25,9.84,0,110.2,13.34,13.85,287.9
"2009-02-06 01:33:30",605339,11.38,333.3,5.949,1.269,16.84,105.3825,13.05,14.25,9.61,0,110.2,13.34,13.85,295.3
"2009-02-06 01:34:00",605340,10.27,340.1,7.122,1.354,16.2,105.3797,13.04,14.24,9.62,0,110.2,13.34,13.84,302.1
"2009-02-06 01:34:30",605341,9.09,330.6,13.05,1.049,13.53,105.3571,12.99,14.03,9.55,0,110.2,13.34,13.78,292.6
"2009-02-06 01:35:00",605342,8.07,321.1,4.168,1.002,11.41,105.3487,12.96,13.92,9.5,0,110.2,13.38,13.76,283.1
"2009-02-06 01:35:30",605343,6.275,317.8,3.745,0.4,11.6,105.3481,12.96,13.89,9.55,0,110.2,13.38,13.76,279.8
"2009-02-06 01:36:00",605344,7.724,313.7,5.317,0.332,11.95,105.3363,12.93,13.87,9.61,0,110.2,13.38,13.73,275.7
"2009-02-06 01:36:30",605345,7.48,323.7,4.926,0.896,12.67,105.3148,12.88,13.84,9.69,0,110.2,13.35,13.68,285.7
"2009-02-06 01:37:00",605346,9.05,323.9,3.812,1.319,14.6,105.3145,12.88,14.06,9.98,0,110.2,13.35,13.67,285.9
"2009-02-06 01:37:30",605347,10.07,316.9,11.55,1.371,16.58,105.3018,12.85,14.01,9.96,0,110.2,13.35,13.64,278.9
"2009-02-06 01:38:00",605348,9.32,309,8.96,1.245,16.5,105.2827,12.8,14.04,10.03,0,110.2,13.34,13.59,271.0
"2009-02-06 01:38:30",605349,9.25,315.3,5.705,2.035,13.72,105.281,12.79,13.93,9.94,0,110.2,13.34,13.59,277.3
"2009-02-06 01:39:00",605350,6.55,319.5,9.09,0.663,11.19,105.281,12.79,13.72,9.79,0,110.2,13.38,13.59,281.5
"2009-02-06 01:39:30",605351,6.025,323.4,4.367,0.821,11.25,105.2657,12.75,13.7,9.86,0,110.2,13.38,13.55,285.4
"2009-02-06 01:40:00",605352,7.526,299.7,11.26,0.846,11.61,105.2471,12.7,13.66,9.9,0,110.2,13.38,13.50,261.7
"2009-02-06 01:40:30",605353,7.097,292.7,9.18,0.844,12.18,105.2471,12.7,13.64,9.9,0,110.2,13.38,13.50,254.7
"2009-02-06 01:41:00",605354,8.69,315.7,7.304,1.644,14.85,105.2387,12.68,13.85,10.18,0,110.2,13.35,13.48,277.7
"2009-02-06 01:41:30",605355,7.893,321.5,8.77,1.659,15.47,105.2135,12.62,13.8,10.23,0,110.2,13.35,13.42,283.5
"2009-02-06 01:42:00",605356,8.58,318.8,7.233,1.88,15.56,105.2104,12.61,13.84,10.31,0,110.2,13.35,13.41,280.8
"2009-02-06 01:42:30",605357,8.75,308.8,5.806,1.341,12.95,105.2031,12.59,13.65,10.12,0,110.2,13.35,13.39,270.8
"2009-02-06 01:43:00",605358,7.224,314.9,5.396,0.998,11.12,105.1836,12.54,13.51,10.11,0,110.2,13.38,13.34,276.9
"2009-02-06 01:43:30",605359,7.943,306.6,9.05,0.515,11.07,105.1794,12.53,13.48,10.15,0,110.2,13.38,13.33,268.6
"2009-02-06 01:44:00",605360,7.215,309.9,3.58,0.642,11.45,105.1591,12.48,13.45,10.2,0,110.2,13.38,13.28,271.9
"2009-02-06 01:44:30",605361,12.29,310.3,10.45,1.447,15.38,105.1509,12.46,13.48,9.87,0,110.2,13.34,13.25,272.3
"2009-02-06 01:45:00",605362,12.76,312,7.985,1.555,15.5,105.1788,12.53,13.62,9.74,0,110.2,13.34,13.33,274.0
"2009-02-06 01:45:30",605363,13.17,305,7.402,1.221,16.35,105.1794,12.53,13.71,9.99,0,110.2,13.34,13.33,267.0
"2009-02-06 01:46:00",605364,11.53,303.3,8.74,1.805,15.72,105.1794,12.53,13.74,10.12,0,110.2,13.34,13.33,265.3
"2009-02-06 01:46:30",605365,13.12,301.4,6.766,1.359,15.64,105.1879,12.55,13.57,9.62,0,110.2,13.34,13.35,263.4
"2009-02-06 01:47:00",605366,10.82,300.7,4.252,1.028,11.16,105.2127,12.62,13.47,9.46,0,110.2,13.37,13.41,262.7
"2009-02-06 01:47:30",605367,12.15,296.5,1.016,0.483,12.55,105.2147,12.62,13.47,9.42,0,110.2,13.38,13.42,258.5
"2009-02-06 01:48:00",605368,12.67,294.7,1.766,0.427,12.8,105.2446,12.7,13.5,8.98,0,110.2,13.38,13.49,256.7
"2009-02-06 01:48:30",605369,12.42,291.8,3.421,0.675,13.01,105.266,12.75,13.57,8.97,0,110.2,13.38,13.55,253.8